Joplin, MO

4:11 PM CDT on March 27, 2017 (GMT -0500)
Joplin Regional

Weather History for KJLN - October, 2013

Change the Weather History Date:

Tuesday, October 22, 2013

  Actual Average Record
Temperature  
Mean Temperature 52 °F 58 °F  
Max Temperature 67 °F 70 °F 84 °F (1963)
Min Temperature 37 °F 47 °F 27 °F (1982)
Degree Days  
Heating Degree Days 13 8  
Month to date heating degree days 157 127  
Since 1 July heating degree days 168 169  
Cooling Degree Days 0 1  
Month to date cooling degree days 51 40  
Year to date cooling degree days 1572 1682  
Growing Degree Days 2 (Base 50)    
Moisture  
Dew Point 38 °F    
Average Humidity 62    
Maximum Humidity 92    
Minimum Humidity 32    
Precipitation  
Precipitation 0.00 in 0.14 in 2.31 in (1972)
Month to date precipitation 1.52 2.89  
Year to date precipitation 36.98 38.81  
Sea Level Pressure  
Sea Level Pressure 30.02 in    
Wind  
Wind Speed 11 mph (WSW)    
Max Wind Speed 23 mph    
Max Gust Speed 31 mph    
Visibility 10 miles    
Events      
T = Trace of Precipitation, MM = Missing Value Source: NWS Daily Summary

Daily Weather History Graph

Daily Weather History Graph

Search for Another Location

Airport or City:

Trip Planner

Search our weather history database for the weather conditions in past years. The results will help you decide how hot, cold, wet, or windy it might be!

Date:

Astronomy

Oct. 22, 2013 Rise Set
Actual Time 7:32 AM CDT 6:31 PM CDT
Civil Twilight 7:06 AM CDT 6:58 PM CDT
Nautical Twilight 6:35 AM CDT 7:28 PM CDT
Astronomical Twilight 6:05 AM CDT 7:58 PM CDT
Moon 9:16 PM CDT (10/22) 10:58 AM CDT (10/22)
Length of Visible Light 11h 51m
Length of Day
10h 58m
Waning Gibbous, 86% of the Moon is Illuminated
Oct 22
Waning Gibbous
Oct 26
Last Quarter
Nov 3
New
Nov 9
First Quarter
Nov 17
Full

Hourly Weather History & Observations

Time (CDT) Temp. Windchill Dew Point Humidity Pressure Visibility Wind Dir Wind Speed Gust Speed Precip Events Conditions
12:53 AM 39.9 °F 36.7 °F 36.0 °F 86% 30.09 in 10.0 mi South 4.6 mph - N/A   Clear
1:53 AM 37.9 °F 33.5 °F 35.1 °F 89% 30.08 in 10.0 mi South 5.8 mph - N/A   Clear
2:53 AM 37.9 °F 33.5 °F 34.0 °F 86% 30.09 in 10.0 mi SSW 5.8 mph - N/A   Clear
3:53 AM 37.0 °F 31.0 °F 34.0 °F 89% 30.06 in 10.0 mi South 8.1 mph - N/A   Clear
4:53 AM 41.0 °F 36.4 °F 37.0 °F 86% 30.05 in 10.0 mi SSW 6.9 mph - N/A   Clear
5:53 AM 42.1 °F 36.6 °F 37.0 °F 82% 30.04 in 10.0 mi South 9.2 mph - N/A   Clear
6:53 AM 44.1 °F 39.0 °F 37.9 °F 79% 30.04 in 10.0 mi SSW 9.2 mph - N/A   Mostly Cloudy
7:53 AM 46.0 °F 40.6 °F 37.0 °F 71% 30.01 in 10.0 mi South 11.5 mph - N/A   Mostly Cloudy
8:53 AM 50.0 °F - 36.0 °F 59% 30.01 in 10.0 mi SW 16.1 mph - N/A   Overcast
9:53 AM 51.1 °F - 39.0 °F 63% 30.03 in 10.0 mi SW 17.3 mph - 0.00 in   Mostly Cloudy
10:53 AM 55.9 °F - 39.9 °F 55% 30.01 in 10.0 mi SW 15.0 mph - N/A   Clear
11:53 AM 57.9 °F - 41.0 °F 53% 30.00 in 10.0 mi WSW 13.8 mph - N/A   Clear
12:53 PM 60.1 °F - 43.0 °F 53% 29.99 in 10.0 mi West 9.2 mph - N/A   Clear
1:53 PM 63.0 °F - 44.1 °F 50% 29.96 in 10.0 mi West 16.1 mph - 0.00 in   Clear
2:53 PM 64.9 °F - 41.0 °F 42% 29.94 in 10.0 mi WNW 20.7 mph 27.6 mph 0.00 in   Partly Cloudy
3:53 PM 66.9 °F - 37.0 °F 33% 29.94 in 10.0 mi WNW 20.7 mph 26.5 mph N/A   Partly Cloudy
4:53 PM 66.0 °F - 36.0 °F 33% 29.96 in 10.0 mi WNW 20.7 mph - N/A   Partly Cloudy
5:53 PM 63.0 °F - 37.0 °F 38% 29.97 in 10.0 mi NW 11.5 mph - N/A   Clear
6:53 PM 59.0 °F - 37.0 °F 44% 29.99 in 10.0 mi NNW 11.5 mph - N/A   Partly Cloudy
7:53 PM 54.0 °F - 39.0 °F 57% 30.02 in 10.0 mi NNW 6.9 mph - N/A   Partly Cloudy
8:53 PM 50.0 °F - 39.0 °F 66% 30.04 in 10.0 mi North 4.6 mph - N/A   Clear
9:53 PM 48.9 °F - 39.0 °F 69% 30.06 in 10.0 mi Calm Calm - N/A   Clear
10:53 PM 46.9 °F - 37.9 °F 71% 30.08 in 10.0 mi NNE 5.8 mph - N/A   Clear
11:53 PM 46.0 °F 41.9 °F 37.0 °F 71% 30.09 in 10.0 mi NNE 8.1 mph - N/A   Clear